Regional Weather Roundup
Issued by NWS

Home | Current Version | Previous Version | Text Only | Print | Product List | Glossary On
Versions: 1 2 3 4 5 6 7 8 9 10 11 12 13 14 15 16 17 18 19 20 21 22 23 24 25 26 27 28 29 30 31 32 33 34 35 36 37 38 39 40 41 42 43 44 45 46 47 48 49 50
548
ASUS43 KDMX 270101
RWRIA

WEATHER ROUNDUP FOR IOWA
NATIONAL WEATHER SERVICE DES MOINES IA
800 PM CDT SUN MAR 26 2017

NOTE: "FAIR" INDICATES FEW OR NO CLOUDS BELOW 12,000 FEET WITH NO
SIGNIFICANT WEATHER AND/OR OBSTRUCTIONS TO VISIBILITY.

* - THESE STATIONS ARE NOT NWS STATIONS...THUS NOT UNDER NWS
QUALITY CONTROL.  THEY ALSO DO NOT REPORT WEATHER SUCH
AS PRECIPITATION OR FOG.

IAZ001>003-012>014-020>022-031>034-043>046-270200-
   NORTHWEST IOWA

CITY           SKY/WX    TMP DP  RH WIND       PRES   REMARKS
CARROLL *      CLOUDY    45  45 100 CALM      29.93R
CHEROKEE *     CLOUDY    45  41  87 N3        29.94R
LE MARS *      CLOUDY    46  41  81 N6        29.95R
ORANGE CITY *  CLOUDY    45  39  81 N6        29.93R
SHELDON *      CLOUDY    43  43 100 NE9       29.90S
SIOUX CITY     CLOUDY    47  40  76 N6        29.94R
SPENCER        CLOUDY    43  39  86 N10       29.91F
STORM LAKE *   CLOUDY    43  41  93 N5        29.92R
$$

IAZ055>058-069>071-079>083-090>094-270200-
   SOUTHWEST IOWA

CITY           SKY/WX    TMP DP  RH WIND       PRES   REMARKS
ATLANTIC *     CLOUDY    46  43  87 NE3       29.94R
AUDUBON *      CLOUDY    45  41  87 N3        29.94R
CLARINDA *     CLOUDY    48  45  87 NE3       29.97R
COUNCIL BLFS * CLOUDY    46  46 100 CALM      29.95R
CRESTON *      CLOUDY    46  45  93 CALM      29.95R
HARLAN  *      CLOUDY    46  46 100 NE5       29.97R
LAMONI         CLOUDY    47  43  86 W5        29.93R
RED OAK *      CLOUDY    48  43  81 CALM      29.95R
SHENANDOAH *   CLOUDY    48  45  87 N3        29.96R
$$

IAZ047>049-059>061-072>074-084-270200-
   CENTRAL IOWA

CITY           SKY/WX    TMP DP  RH WIND       PRES   REMARKS
AMES           CLOUDY    45  44  97 N3        29.91R
ANKENY *       CLOUDY    45  43  93 W5        29.94R
BOONE *        CLOUDY    43  43 100 N6        29.90R
CHARITON *     CLOUDY    46  45  93 NW5       29.92R
DES MOINES     CLOUDY    47  43  86 NW6       29.92R
GRINNELL*      CLOUDY    45  43  95 NW5       29.91S
MARSHALLTOWN   CLOUDY    46  45  96 N6        29.90R
NEWTON *       CLOUDY    45  43  93 NW6       29.90R
PELLA *        CLOUDY    46  44  95 W5        29.93R
PERRY *        CLOUDY    45  43  93 N5        29.92R
$$

IAZ004>006-015-016-023>025-035-036-270200-
   NORTH CENTRAL IOWA

CITY           SKY/WX    TMP DP  RH WIND       PRES   REMARKS
ALGONA *       CLOUDY    41  41 100 N8        29.91S
CLARION *      CLOUDY    43  43 100 N6        29.91S
ESTHERVILLE    CLOUDY    41  39  93 N10       29.91S
FORT DODGE *   CLOUDY    43  37  81 N5        29.92R
MASON CITY     CLOUDY    42  40  92 N8        29.91S
FOREST CITY *  CLOUDY    41  41 100 N9        29.90F
WEBSTER CITY * CLOUDY    43  43 100 N7        29.89S
IOWA FALLS *   CLOUDY    45  43  93 N6        29.91R
$$

IAZ007>011-017>019-026>030-037>042-050>054-066-270200-
   NORTHEAST IOWA

CITY           SKY/WX    TMP DP  RH WIND       PRES   REMARKS
CEDAR RAPIDS   CLOUDY    46  46 100 W5        29.89R
CHARLES CITY * CLOUDY    43  43 100 N8        29.90S
CLINTON *      CLOUDY    51  49  92 W9        29.89R
DECORAH *      CLOUDY    43  41  93 N9        29.89R
DUBUQUE        CLOUDY    45  44  97 W7        29.88R
MONTICELLO *   CLOUDY    46  45  93 NW8       29.89R
OELWEIN *      CLOUDY    45  45 100 N8        29.89S
WATERLOO       CLOUDY    44  41  89 N9        29.89S
$$

IAZ064-065-067-068-078-270200-
   EAST CENTRAL IOWA

CITY           SKY/WX    TMP DP  RH WIND       PRES   REMARKS
DAVENPORT      CLOUDY    49  47  93 W12       29.90R
IOWA CITY      CLOUDY    50  45  83 NW3       29.91S
MUSCATINE *    CLOUDY    50  46  87 W7        29.91R
QUAD CITIES    CLOUDY    51  46  83 W13       29.89R
$$

IAZ062-063-075>077-085>089-095>099-270200-
   SOUTHEAST IOWA

CITY           SKY/WX    TMP DP  RH WIND       PRES   REMARKS
BURLINGTON     CLOUDY    49  47  93 W5        29.91R
FAIRFIELD *    CLOUDY    46  46 100 NW5       29.91R
FORT MADISON * CLOUDY    48  48 100 CALM      29.94R
KEOKUK *       CLOUDY    50  46  87 SW6       29.93R
OSKALOOSA *    CLOUDY    46  44  95 NW3       29.92R FOG
OTTUMWA        CLOUDY    47  46  97 NW3       29.92R
WASHINGTON *   CLOUDY    46  46 100 NW6       29.92R
$$

ABBREVIATIONS USED IN REMARKS
   TC - TEMPERATURES IN CELSIUS
  WCI - WIND CHILL INDEX
   HX - HEAT INDEX
  VSB - VISIBILITY
$$





USA.gov is the U.S. government's official web portal to all federal, state and local government web resources and services.